This is the latest recevied weather packets stored in our database for station/object DB0LC-2. If no packets are shown the sender has not sent any weather packets the latest 1 day(s).
| Time | Temp. | Humidity | Pressure | Rain* | Wind** | Luminosity | Snow |
|---|---|---|---|---|---|---|---|
| 1777964612 | 18.89° C | 30% | 906.3 hPa | 0 mm | 0 m/s | - | - |
| 1777964610 | 18.89° C | 30% | 906.4 hPa | 0 mm | 0 m/s | - | - |
| 1777963987 | 20° C | 31% | 906.3 hPa | 0 mm | 0 m/s | - | - |
| 1777963352 | 19.44° C | 31% | 906.4 hPa | 0 mm | 0 m/s | - | - |
| 1777962756 | 19.44° C | 31% | 906.3 hPa | 0 mm | 0 m/s | - | - |
| 1777962125 | 18.89° C | 31% | 906.4 hPa | 0 mm | 0 m/s | - | - |
| 1777961509 | 19.44° C | 29% | 906.5 hPa | 0 mm | 0 m/s | - | - |
| 1777960888 | 18.89° C | 31% | 906.4 hPa | 0 mm | 0 m/s | - | - |
| 1777960887 | 18.89° C | 31% | 906.6 hPa | 0 mm | 0 m/s | - | - |
| 1777959651 | 20° C | 30% | 906.5 hPa | 0 mm | 0 m/s | - | - |
| 1777959021 | 19.44° C | 31% | 906.4 hPa | 0 mm | 0 m/s | - | - |
| 1777958364 | 19.44° C | 31% | 906.4 hPa | 0 mm | 0 m/s | - | - |
| 1777957068 | 20° C | 31% | 906.4 hPa | 0 mm | 0 m/s | - | - |
| 1777956442 | 19.44° C | 31% | 906.5 hPa | 0 mm | 0 m/s | - | - |
| 1777955817 | 19.44° C | 31% | 906.4 hPa | 0 mm | 0 m/s | - | - |
| 1777955161 | 19.44° C | 31% | 906.3 hPa | 0 mm | 0 m/s | - | - |
| 1777955159 | 19.44° C | 31% | 906.4 hPa | 0 mm | 0 m/s | - | - |
| 1777954530 | 20° C | 31% | 906.4 hPa | 0 mm | 0 m/s | - | - |
| 1777953893 | 20° C | 31% | 906.5 hPa | 0 mm | 0 m/s | - | - |
| 1777953259 | 19.44° C | 31% | 906.7 hPa | 0 mm | 0 m/s | - | - |
| 1777953257 | 19.44° C | 31% | 906.6 hPa | 0 mm | 0 m/s | - | - |
| 1777952595 | 19.44° C | 31% | 906.7 hPa | 0 mm | 0 m/s | - | - |
| 1777951935 | 20° C | 31% | 906.8 hPa | 0 mm | 0 m/s | - | - |
| 1777951309 | 19.44° C | 31% | 906.8 hPa | 0 mm | 0 m/s | - | - |
| 1777950650 | 19.44° C | 31% | 906.7 hPa | 0 mm | 0 m/s | - | - |
* Rain latest hour (hover to see other rain measurements)
** Current wind speed in m/s (hover to see current wind gust speed)